Location: Schommer Observatory
(40.5200°N, 74.4500°W)
Time: 16:48:03
(UTC-04:00)

Envisat - Pass Details

Date: 07 October 2017
Orbit: 764 x 766 km, 98.2° (Epoch: 23 October)

Event Time Altitude Azimuth Distance (km) Brightness Sun altitude
Exits shadow 21:18:23 45° 278° (W) 1,033 3.9 -32.3°
Drops below altitude 10° 21:22:49 10° 335° (NNW) 2,310 6.0 -33.1°
Sets 21:25:13 0° 341° (NNW) 3,240 6.8 -33.5°
